BEL56L LIMC-EBBR

Flight info

Callsign BEL56L
Flight time 1h 6m
Altitude 32000
Route AOSTA DCT ORSUD DCT MOLUS DCT GILIR DCT PENDU DCT IXILU DCT GIVOR DCT SORAL DCT IBERA N853 DIK Y37 BATTY
Aircraft A20N/M-SDE2E3FGHIRWXY/LB1

Departure

Time 2026-05-06 08:44
Airport Milan Malpensa International Airport (LIMC)

Arrival

Time 2026-05-06 09:51
Airport Brussels Airport (EBBR)
Time Latitude Longitude Altitude Speed Heading
2026-05-06 08:18 45.63083 8.71592 740 ft 0 kts 259°
2026-05-06 08:30 45.63083 8.71591 740 ft 0 kts 259°
2026-05-06 08:30 45.63083 8.71592 740 ft 1 kts 259°
2026-05-06 08:30 45.63084 8.71613 740 ft 2 kts 260°
2026-05-06 08:31 45.63086 8.71626 740 ft 2 kts 257°
2026-05-06 08:31 45.63092 8.71645 740 ft 2 kts 230°
2026-05-06 08:31 45.63103 8.71660 741 ft 2 kts 209°
2026-05-06 08:31 45.63118 8.71667 741 ft 2 kts 187°
2026-05-06 08:32 45.63128 8.71667 741 ft 0 kts 172°
2026-05-06 08:32 45.63135 8.71665 741 ft 0 kts 169°
2026-05-06 08:35 45.63132 8.71666 741 ft 1 kts 166°
2026-05-06 08:35 45.63112 8.71684 741 ft 5 kts 146°
2026-05-06 08:35 45.63061 8.71718 739 ft 10 kts 169°
2026-05-06 08:36 45.62978 8.71741 738 ft 13 kts 168°
2026-05-06 08:36 45.62883 8.71768 737 ft 14 kts 169°
2026-05-06 08:36 45.62777 8.71797 735 ft 16 kts 169°
2026-05-06 08:36 45.62659 8.71830 733 ft 18 kts 169°
2026-05-06 08:37 45.62527 8.71866 731 ft 20 kts 169°
2026-05-06 08:37 45.62371 8.71909 728 ft 24 kts 169°
2026-05-06 08:37 45.62196 8.71958 725 ft 25 kts 169°
2026-05-06 08:37 45.62018 8.72006 721 ft 26 kts 169°
2026-05-06 08:38 45.61839 8.72056 717 ft 26 kts 169°
2026-05-06 08:38 45.61653 8.72107 712 ft 27 kts 168°
2026-05-06 08:38 45.61467 8.72159 707 ft 27 kts 171°
2026-05-06 08:38 45.61278 8.72211 703 ft 27 kts 169°
2026-05-06 08:39 45.61087 8.72264 699 ft 27 kts 170°
2026-05-06 08:39 45.60899 8.72316 696 ft 27 kts 168°
2026-05-06 08:39 45.60721 8.72365 693 ft 20 kts 168°
2026-05-06 08:39 45.60638 8.72505 692 ft 20 kts 94°
2026-05-06 08:40 45.60622 8.72728 691 ft 24 kts 97°
2026-05-06 08:40 45.60604 8.72978 690 ft 26 kts 95°
2026-05-06 08:40 45.60600 8.73218 690 ft 18 kts 68°
2026-05-06 08:40 45.60705 8.73314 691 ft 20 kts 23°
2026-05-06 08:41 45.60850 8.73399 692 ft 23 kts 17°
2026-05-06 08:41 45.61010 8.73379 693 ft 22 kts 349°
2026-05-06 08:41 45.61170 8.73334 695 ft 24 kts 349°
2026-05-06 08:41 45.61338 8.73288 697 ft 24 kts 349°
2026-05-06 08:42 45.61496 8.73245 700 ft 22 kts 350°
2026-05-06 08:42 45.61615 8.73245 702 ft 14 kts 60°
2026-05-06 08:42 45.61635 8.73387 702 ft 15 kts 85°
2026-05-06 08:42 45.61595 8.73535 700 ft 16 kts 111°
2026-05-06 08:43 45.61598 8.73696 699 ft 11 kts 81°
2026-05-06 08:43 45.61638 8.73740 700 ft 10 kts 345°
2026-05-06 08:43 45.61887 8.73666 705 ft 73 kts 349°
2026-05-06 08:43 45.62617 8.73462 722 ft 138 kts 350°
2026-05-06 08:44 45.63708 8.73154 918 ft 172 kts 352°
2026-05-06 08:44 45.64875 8.72877 1587 ft 173 kts 358°
2026-05-06 08:44 45.66083 8.72829 2292 ft 175 kts
2026-05-06 08:44 45.67310 8.72811 2830 ft 184 kts
2026-05-06 08:45 45.68650 8.72798 3245 ft 201 kts
2026-05-06 08:45 45.70095 8.72728 3710 ft 218 kts 359°
2026-05-06 08:45 45.71670 8.72503 4143 ft 239 kts 344°
2026-05-06 08:45 45.73064 8.71223 4874 ft 245 kts 308°
2026-05-06 08:46 45.73718 8.69031 5665 ft 245 kts 271°
2026-05-06 08:46 45.73422 8.66701 6463 ft 242 kts 243°
2026-05-06 08:46 45.72712 8.64503 7297 ft 245 kts 243°
2026-05-06 08:46 45.72059 8.62272 8153 ft 247 kts 243°
2026-05-06 08:47 45.71337 8.60055 9014 ft 247 kts 238°
2026-05-06 08:47 45.70466 8.57919 9659 ft 257 kts 234°
2026-05-06 08:47 45.69487 8.55693 10142 ft 274 kts 234°
2026-05-06 08:47 45.68440 8.53332 10603 ft 292 kts 234°
2026-05-06 08:48 45.67308 8.50775 11039 ft 310 kts 234°
2026-05-06 08:48 45.66137 8.48143 11614 ft 322 kts 234°
2026-05-06 08:48 45.64940 8.45457 12372 ft 327 kts 235°
2026-05-06 08:48 45.63708 8.42698 13021 ft 334 kts 234°
2026-05-06 08:49 45.62355 8.39986 13718 ft 338 kts 230°
2026-05-06 08:49 45.60858 8.37348 14521 ft 340 kts 228°
2026-05-06 08:49 45.59375 8.34716 15223 ft 346 kts 233°
2026-05-06 08:49 45.58429 8.31538 15871 ft 358 kts 254°
2026-05-06 08:50 45.58353 8.28002 16519 ft 369 kts 274°
2026-05-06 08:50 45.59063 8.24456 17235 ft 376 kts 284°
2026-05-06 08:50 45.59911 8.20937 17872 ft 381 kts 284°
2026-05-06 08:50 45.60775 8.17322 18478 ft 386 kts 284°
2026-05-06 08:51 45.61627 8.13712 19156 ft 388 kts 284°
2026-05-06 08:51 45.62477 8.10078 19872 ft 389 kts 283°
2026-05-06 08:51 45.63330 8.06411 20584 ft 390 kts 283°
2026-05-06 08:51 45.64170 8.02770 21211 ft 392 kts 283°
2026-05-06 08:52 45.65026 7.99041 21837 ft 394 kts 283°
2026-05-06 08:52 45.65882 7.95315 22399 ft 398 kts 283°
2026-05-06 08:52 45.66737 7.91583 22978 ft 400 kts 283°
2026-05-06 08:52 45.67603 7.87815 23562 ft 403 kts 283°
2026-05-06 08:53 45.68477 7.83996 24110 ft 405 kts 283°
2026-05-06 08:53 45.69341 7.80220 24651 ft 407 kts 283°
2026-05-06 08:53 45.70229 7.76337 25166 ft 410 kts 282°
2026-05-06 08:53 45.71103 7.72499 25623 ft 413 kts 282°
2026-05-06 08:54 45.71995 7.68569 26082 ft 415 kts 282°
2026-05-06 08:54 45.72885 7.64641 26551 ft 417 kts 282°
2026-05-06 08:54 45.73775 7.60704 26984 ft 419 kts 282°
2026-05-06 08:54 45.74670 7.56736 27390 ft 422 kts 281°
2026-05-06 08:55 45.75564 7.52772 27797 ft 424 kts 281°
2026-05-06 08:55 45.76463 7.48776 28269 ft 424 kts 281°
2026-05-06 08:55 45.77358 7.44785 28797 ft 423 kts 281°
2026-05-06 08:55 45.78352 7.40800 29346 ft 425 kts 287°
2026-05-06 08:56 45.79739 7.37059 29892 ft 431 kts 295°
2026-05-06 08:56 45.81539 7.33579 30401 ft 438 kts 303°
2026-05-06 08:56 45.83703 7.30504 30854 ft 447 kts 312°
2026-05-06 08:56 45.86194 7.27777 31211 ft 453 kts 317°
2026-05-06 08:57 45.88753 7.25204 31525 ft 456 kts 318°
2026-05-06 08:57 45.91357 7.22618 31795 ft 458 kts 318°
2026-05-06 08:57 45.93983 7.19981 31840 ft 462 kts 318°
2026-05-06 08:58 45.99221 7.14660 31833 ft 461 kts 317°
2026-05-06 08:58 46.04442 7.09316 31832 ft 461 kts 317°
2026-05-06 08:59 46.09651 7.03956 31823 ft 464 kts 318°
2026-05-06 08:59 46.14887 6.98569 31832 ft 465 kts 318°
2026-05-06 09:00 46.20135 6.93154 31855 ft 464 kts 318°
2026-05-06 09:00 46.25377 6.87729 31859 ft 464 kts 318°
2026-05-06 09:01 46.30615 6.82298 31857 ft 464 kts 318°
2026-05-06 09:01 46.35812 6.76891 31845 ft 465 kts 319°
2026-05-06 09:02 46.41055 6.71430 31849 ft 466 kts 319°
2026-05-06 09:02 46.46592 6.66435 31856 ft 472 kts 327°
2026-05-06 09:03 46.52444 6.62212 31865 ft 473 kts 330°
2026-05-06 09:03 46.58354 6.58090 31905 ft 474 kts 330°
2026-05-06 09:04 46.64294 6.53917 31874 ft 475 kts 330°
2026-05-06 09:04 46.70242 6.49711 31884 ft 474 kts 330°
2026-05-06 09:05 46.76150 6.45515 31915 ft 474 kts 330°
2026-05-06 09:05 46.82035 6.41324 31896 ft 474 kts 331°
2026-05-06 09:06 46.87943 6.37108 31858 ft 474 kts 331°
2026-05-06 09:06 46.93862 6.32880 31869 ft 473 kts 330°
2026-05-06 09:07 46.99745 6.28652 31832 ft 471 kts 331°
2026-05-06 09:07 47.05589 6.24455 31826 ft 471 kts 331°
2026-05-06 09:08 47.11472 6.20223 31845 ft 471 kts 332°
2026-05-06 09:08 47.17303 6.16020 31855 ft 470 kts 332°
2026-05-06 09:09 47.23175 6.11772 31839 ft 470 kts 331°
2026-05-06 09:09 47.29048 6.07651 31872 ft 470 kts 336°
2026-05-06 09:10 47.35272 6.04719 31859 ft 471 kts 347°
2026-05-06 09:10 47.41757 6.03414 31863 ft 470 kts 357°
2026-05-06 09:11 47.48280 6.03444 31866 ft 471 kts
2026-05-06 09:11 47.54785 6.03672 31842 ft 469 kts
2026-05-06 09:12 47.61311 6.03848 31834 ft 470 kts
2026-05-06 09:12 47.67840 6.03999 31846 ft 470 kts
2026-05-06 09:13 47.74303 6.04687 31845 ft 469 kts
2026-05-06 09:13 47.80687 6.06550 31850 ft 468 kts 15°
2026-05-06 09:14 47.86949 6.08926 31819 ft 467 kts 16°
2026-05-06 09:14 47.93256 6.11339 31840 ft 467 kts 15°
2026-05-06 09:15 47.99531 6.13721 31812 ft 467 kts 15°
2026-05-06 09:15 48.05797 6.16099 31802 ft 468 kts 15°
2026-05-06 09:16 48.12133 6.18475 31799 ft 468 kts 15°
2026-05-06 09:16 48.18428 6.20840 31796 ft 468 kts 15°
2026-05-06 09:17 48.24735 6.23270 31790 ft 468 kts 15°
2026-05-06 09:17 48.31019 6.25694 31797 ft 468 kts 15°
2026-05-06 09:18 48.37318 6.28120 31799 ft 468 kts 14°
2026-05-06 09:18 48.43630 6.30547 31803 ft 468 kts 14°
2026-05-06 09:19 48.49902 6.32966 31804 ft 468 kts 14°
2026-05-06 09:19 48.56208 6.35404 31795 ft 468 kts 14°
2026-05-06 09:20 48.62499 6.37810 31807 ft 469 kts 13°
2026-05-06 09:20 48.68839 6.39311 31790 ft 467 kts
2026-05-06 09:21 48.75347 6.38385 31804 ft 465 kts 348°
2026-05-06 09:21 48.81709 6.36730 31801 ft 463 kts 348°
2026-05-06 09:22 48.88064 6.35107 31799 ft 463 kts 348°
2026-05-06 09:22 48.94407 6.33530 31790 ft 462 kts 348°
2026-05-06 09:23 49.00703 6.31971 31789 ft 461 kts 348°
2026-05-06 09:23 49.07059 6.30391 31794 ft 463 kts 348°
2026-05-06 09:24 49.13389 6.28682 31795 ft 461 kts 347°
2026-05-06 09:24 49.19662 6.26851 31786 ft 460 kts 347°
2026-05-06 09:25 49.25944 6.25058 31789 ft 459 kts 348°
2026-05-06 09:25 49.32170 6.23299 31787 ft 459 kts 348°
2026-05-06 09:26 49.38446 6.21532 31786 ft 458 kts 348°
2026-05-06 09:26 49.44701 6.19760 31787 ft 456 kts 349°
2026-05-06 09:27 49.50907 6.18004 31783 ft 455 kts 349°
2026-05-06 09:27 49.56928 6.15246 31455 ft 452 kts 335°
2026-05-06 09:27 49.59746 6.13147 31220 ft 449 kts 334°
2026-05-06 09:28 49.62506 6.11011 30872 ft 446 kts 333°
2026-05-06 09:28 49.65239 6.08896 30358 ft 443 kts 333°
2026-05-06 09:28 49.68009 6.06767 29761 ft 441 kts 334°
2026-05-06 09:28 49.70731 6.04683 29179 ft 439 kts 334°
2026-05-06 09:29 49.73455 6.02606 28610 ft 439 kts 333°
2026-05-06 09:29 49.76182 6.00529 28032 ft 439 kts 333°
2026-05-06 09:29 49.78905 5.98455 27439 ft 438 kts 333°
2026-05-06 09:29 49.81625 5.96382 27006 ft 430 kts 333°
2026-05-06 09:30 49.84284 5.94354 26613 ft 429 kts 333°
2026-05-06 09:30 49.86933 5.92331 26160 ft 426 kts 333°
2026-05-06 09:30 49.89552 5.90330 25692 ft 422 kts 332°
2026-05-06 09:30 49.92191 5.88310 25175 ft 419 kts 332°
2026-05-06 09:31 49.94764 5.86340 24682 ft 415 kts 332°
2026-05-06 09:31 49.97359 5.84350 24203 ft 411 kts 332°
2026-05-06 09:31 49.99902 5.82394 23718 ft 408 kts 332°
2026-05-06 09:31 50.02404 5.80466 23248 ft 404 kts 332°
2026-05-06 09:32 50.04920 5.78524 22779 ft 401 kts 332°
2026-05-06 09:32 50.07384 5.76623 22302 ft 398 kts 332°
2026-05-06 09:32 50.09872 5.74701 21815 ft 395 kts 332°
2026-05-06 09:32 50.12328 5.72803 21325 ft 392 kts 332°
2026-05-06 09:33 50.14732 5.70943 20854 ft 389 kts 332°
2026-05-06 09:33 50.17149 5.69071 20362 ft 387 kts 332°
2026-05-06 09:33 50.19527 5.67228 19869 ft 384 kts 332°
2026-05-06 09:33 50.21927 5.65365 19388 ft 382 kts 332°
2026-05-06 09:34 50.24279 5.63538 18916 ft 379 kts 332°
2026-05-06 09:34 50.26602 5.61729 18476 ft 375 kts 332°
2026-05-06 09:34 50.28924 5.59920 18032 ft 372 kts 332°
2026-05-06 09:34 50.31226 5.58122 17597 ft 368 kts 332°
2026-05-06 09:35 50.33520 5.56330 17133 ft 366 kts 332°
2026-05-06 09:35 50.35763 5.54576 16650 ft 364 kts 332°
2026-05-06 09:35 50.38007 5.52820 16167 ft 362 kts 332°
2026-05-06 09:35 50.40266 5.51046 15667 ft 361 kts 332°
2026-05-06 09:36 50.42500 5.49290 15177 ft 358 kts 332°
2026-05-06 09:36 50.44712 5.47552 14702 ft 357 kts 332°
2026-05-06 09:36 50.46890 5.45842 14241 ft 354 kts 332°
2026-05-06 09:36 50.49096 5.44111 13784 ft 351 kts 332°
2026-05-06 09:37 50.51255 5.42409 13368 ft 347 kts 332°
2026-05-06 09:37 50.53402 5.40717 12950 ft 344 kts 333°
2026-05-06 09:37 50.55537 5.39025 12538 ft 340 kts 333°
2026-05-06 09:37 50.57617 5.37380 12108 ft 337 kts 334°
2026-05-06 09:38 50.59688 5.35744 11661 ft 334 kts 334°
2026-05-06 09:38 50.61785 5.34084 11192 ft 332 kts 334°
2026-05-06 09:38 50.63824 5.32470 10734 ft 330 kts 334°
2026-05-06 09:38 50.65847 5.30868 10370 ft 324 kts 334°
2026-05-06 09:39 50.67824 5.29301 10206 ft 312 kts 334°
2026-05-06 09:39 50.69723 5.27791 10056 ft 299 kts 334°
2026-05-06 09:39 50.71551 5.26338 9908 ft 288 kts 334°
2026-05-06 09:39 50.73285 5.24959 9745 ft 278 kts 335°
2026-05-06 09:40 50.75008 5.23590 9386 ft 276 kts 335°
2026-05-06 09:40 50.76728 5.22222 9040 ft 275 kts 335°
2026-05-06 09:40 50.80106 5.19526 8342 ft 272 kts 335°
2026-05-06 09:41 50.81788 5.18185 7986 ft 271 kts 336°
2026-05-06 09:41 50.83464 5.16845 7630 ft 269 kts 336°
2026-05-06 09:41 50.85128 5.15513 7286 ft 267 kts 336°
2026-05-06 09:41 50.86751 5.14164 7008 ft 263 kts 331°
2026-05-06 09:42 50.88108 5.12301 6889 ft 261 kts 313°
2026-05-06 09:42 50.89177 5.09934 6391 ft 269 kts 306°
2026-05-06 09:42 50.90172 5.07402 5896 ft 275 kts 305°
2026-05-06 09:42 50.91170 5.04825 5574 ft 271 kts 306°
2026-05-06 09:43 50.92145 5.02343 5345 ft 263 kts 305°
2026-05-06 09:43 50.93105 4.99921 5230 ft 251 kts 306°
2026-05-06 09:43 50.94001 4.97664 5204 ft 232 kts 307°
2026-05-06 09:43 50.94827 4.95591 5135 ft 215 kts 307°
2026-05-06 09:44 50.95599 4.93659 5008 ft 198 kts 308°
2026-05-06 09:44 50.96289 4.91923 4936 ft 181 kts 308°
2026-05-06 09:44 50.96943 4.90292 4689 ft 172 kts 309°
2026-05-06 09:44 50.97561 4.88658 4349 ft 175 kts 296°
2026-05-06 09:45 50.97653 4.86724 4000 ft 184 kts 266°
2026-05-06 09:45 50.97346 4.84757 3744 ft 182 kts 257°
2026-05-06 09:45 50.96957 4.82815 3604 ft 184 kts 256°
2026-05-06 09:45 50.96543 4.80920 3486 ft 184 kts 255°
2026-05-06 09:46 50.96110 4.79018 3354 ft 184 kts 254°
2026-05-06 09:46 50.95668 4.77124 3221 ft 178 kts 254°
2026-05-06 09:46 50.95245 4.75338 3096 ft 167 kts 254°
2026-05-06 09:46 50.94843 4.73631 2986 ft 164 kts 255°
2026-05-06 09:47 50.94458 4.71997 2740 ft 153 kts 255°
2026-05-06 09:47 50.94091 4.70425 2535 ft 151 kts 255°
2026-05-06 09:47 50.93731 4.68884 2338 ft 150 kts 255°
2026-05-06 09:47 50.93370 4.67330 2138 ft 150 kts 256°
2026-05-06 09:48 50.93012 4.65789 1943 ft 149 kts 255°
2026-05-06 09:48 50.92660 4.64294 1750 ft 148 kts 256°
2026-05-06 09:48 50.92394 4.63150 1602 ft 148 kts 255°
2026-05-06 09:48 50.92041 4.61629 1405 ft 145 kts 255°
2026-05-06 09:49 50.91698 4.60145 1207 ft 143 kts 254°
2026-05-06 09:49 50.91354 4.58656 1014 ft 142 kts 254°
2026-05-06 09:49 50.91028 4.57210 821 ft 140 kts 254°
2026-05-06 09:49 50.90694 4.55766 639 ft 138 kts 253°
2026-05-06 09:50 50.90360 4.54355 464 ft 137 kts 253°
2026-05-06 09:50 50.90035 4.52944 267 ft 135 kts 253°
2026-05-06 09:50 50.89718 4.51575 157 ft 129 kts 252°
2026-05-06 09:50 50.89455 4.50420 160 ft 88 kts 251°
2026-05-06 09:51 50.89300 4.49759 161 ft 44 kts 249°
2026-05-06 09:51 50.89227 4.49431 162 ft 22 kts 262°
2026-05-06 09:51 50.89275 4.49222 161 ft 19 kts 311°
2026-05-06 09:51 50.89359 4.49069 160 ft 16 kts 310°
2026-05-06 09:52 50.89438 4.49015 159 ft 13 kts 13°
2026-05-06 09:52 50.89537 4.49056 157 ft 15 kts 14°
2026-05-06 09:52 50.89640 4.49137 156 ft 17 kts 28°
2026-05-06 09:52 50.89758 4.49193 153 ft 18 kts 14°
2026-05-06 09:53 50.89890 4.49244 150 ft 20 kts 13°
2026-05-06 09:53 50.90031 4.49304 146 ft 21 kts 15°
2026-05-06 09:53 50.90183 4.49366 141 ft 23 kts 14°
2026-05-06 09:53 50.90302 4.49409 136 ft 13 kts 355°
2026-05-06 09:54 50.90382 4.49329 135 ft 15 kts 336°
2026-05-06 09:54 50.90485 4.49255 131 ft 17 kts 335°
2026-05-06 09:54 50.90607 4.49166 124 ft 15 kts 336°
2026-05-06 09:54 50.90648 4.49087 122 ft 10 kts 256°
2026-05-06 09:55 50.90615 4.48970 122 ft 12 kts 247°
2026-05-06 09:55 50.90580 4.48847 121 ft 12 kts 245°
2026-05-06 09:55 50.90544 4.48721 121 ft 12 kts 246°
2026-05-06 09:55 50.90505 4.48587 120 ft 14 kts 246°
2026-05-06 09:56 50.90460 4.48431 119 ft 16 kts 245°
2026-05-06 09:56 50.90421 4.48297 118 ft 8 kts 245°
2026-05-06 09:56 50.90393 4.48273 118 ft 4 kts 168°
2026-05-06 09:56 50.90371 4.48287 119 ft 1 kts 155°
2026-05-06 09:57 50.90362 4.48294 119 ft 1 kts 155°
2026-05-06 09:57 50.90345 4.48306 120 ft 3 kts 155°
2026-05-06 09:57 50.90329 4.48318 121 ft 1 kts 155°
2026-05-06 09:57 50.90328 4.48319 121 ft 0 kts 156°